Tracking 19562 objects as of 25-Mar-2019
HD Live streaming from Space Station
objects crossing your sky now

RADUGA 1-6

Track RADUGA 1-6 now!
RADUGA 1-6 is classified as:


NORAD ID: 26936
Int'l Code: 2001-045A
Perigee: 36,466.9 km
Apogee: 36,568.6 km
Inclination: 12.2 °
Period: 1,473.2 minutes
Semi major axis: 42888 km
RCS: 6.3096 m2 (large)
Launch date: October 6, 2001
Source: Commonwealth of Independent States (former USSR) (CIS)
Launch site: TYURATAM MISSILE AND SPACE COMPLEX (TTMTR)

Military communication.
aabbcc
Your satellite tracking list
Your tracking list is empty




NASA's NSSDC Master Catalog

Two Line Element Set (TLE):
1 26936U 01045A   19082.90309722 -.00000058 +00000-0 +00000-0 0  9992
2 26936 012.1674 033.4028 0011853 148.6107 025.8914 00.97743382062778
Source of the keplerian elements: AFSPC